Jackson, MS

10:00 PM CDT on May 28, 2017 (GMT -0500)
Jackson-Evers International

Weather History for KJAN - March, 2011

Change the Weather History Date:

Wednesday, March 23, 2011

  Actual Average Record
Temperature  
Mean Temperature 74 °F 59 °F  
Max Temperature 83 °F 70 °F 89 °F (1929)
Min Temperature 64 °F 47 °F 26 °F (1914)
Degree Days  
Heating Degree Days 0 7  
Month to date heating degree days 168 225  
Since 1 July heating degree days 2159 2217  
Cooling Degree Days 9 1  
Month to date cooling degree days 34 20  
Year to date cooling degree days 55 30  
Growing Degree Days 23 (Base 50)    
Moisture  
Dew Point 60 °F    
Average Humidity 67    
Maximum Humidity 93    
Minimum Humidity 40    
Precipitation  
Precipitation 0.01 in 0.17 in 2.25 in (1923)
Month to date precipitation 5.48 3.67  
Year to date precipitation 11.86 13.40  
Sea Level Pressure  
Sea Level Pressure 29.86 in    
Wind  
Wind Speed 7 mph (SW)    
Max Wind Speed 20 mph    
Max Gust Speed 29 mph    
Visibility 10 miles    
Events      
T = Trace of Precipitation, MM = Missing Value Source: NWS Daily Summary

Daily Weather History Graph

Daily Weather History Graph

Search for Another Location

Airport or City:

Trip Planner

Search our weather history database for the weather conditions in past years. The results will help you decide how hot, cold, wet, or windy it might be!

Date:

Astronomy

Mar. 23, 2011 Rise Set
Actual Time 7:00 AM CDT 7:13 PM CDT
Civil Twilight 6:36 AM CDT 7:38 PM CDT
Nautical Twilight 6:07 AM CDT 8:06 PM CDT
Astronomical Twilight 5:38 AM CDT 8:35 PM CDT
Moon No Moon Rise 9:30 AM CDT (3/23)
Length of Visible Light 13h 02m
Length of Day
12h 13m
Waning Gibbous, 79% of the Moon is Illuminated
Mar 23
Waning Gibbous
Mar 26
Last Quarter
Apr 3
New
Apr 11
First Quarter
Apr 17
Full

Hourly Weather History & Observations

Time (CDT) Temp. Heat Index Dew Point Humidity Pressure Visibility Wind Dir Wind Speed Gust Speed Precip Events Conditions
12:54 AM 66.9 °F - 59.0 °F 76% 29.91 in 10.0 mi South 5.8 mph - N/A   Clear
1:54 AM 66.0 °F - 59.0 °F 78% 29.90 in 10.0 mi South 5.8 mph - N/A   Clear
2:39 AM 66.2 °F - 60.8 °F 83% 29.91 in 10.0 mi South 4.6 mph - N/A   Mostly Cloudy
2:54 AM 66.0 °F - 61.0 °F 84% 29.89 in 10.0 mi South 4.6 mph - N/A   Mostly Cloudy
3:54 AM 66.9 °F - 61.0 °F 81% 29.88 in 10.0 mi Variable 4.6 mph - N/A   Overcast
4:44 AM 66.2 °F - 60.8 °F 83% 29.87 in 9.0 mi Variable 6.9 mph - N/A   Scattered Clouds
4:54 AM 64.9 °F - 60.1 °F 84% 29.86 in 9.0 mi Variable 5.8 mph - N/A   Partly Cloudy
5:41 AM 64.4 °F - 60.8 °F 88% 29.88 in 9.0 mi Variable 3.5 mph - N/A   Mostly Cloudy
5:54 AM 66.0 °F - 61.0 °F 84% 29.87 in 9.0 mi South 5.8 mph - N/A   Mostly Cloudy
6:54 AM 64.9 °F - 61.0 °F 87% 29.88 in 8.0 mi Variable 4.6 mph - N/A   Mostly Cloudy
7:54 AM 64.9 °F - 62.1 °F 90% 29.89 in 6.0 mi Variable 4.6 mph - N/A   Overcast
8:54 AM 68.0 °F - 62.1 °F 81% 29.91 in 8.0 mi SW 8.1 mph 16.1 mph N/A   Mostly Cloudy
9:54 AM 69.1 °F - 61.0 °F 75% 29.91 in 10.0 mi SW 12.7 mph 23.0 mph N/A   Mostly Cloudy
10:21 AM 71.6 °F - 60.8 °F 69% 29.91 in 10.0 mi SW 12.7 mph 21.9 mph N/A   Scattered Clouds
10:33 AM 73.4 °F - 60.8 °F 65% 29.91 in 10.0 mi SW 10.4 mph 18.4 mph N/A   Mostly Cloudy
10:54 AM 72.0 °F - 60.1 °F 66% 29.91 in 10.0 mi SW 10.4 mph 20.7 mph N/A   Mostly Cloudy
11:22 AM 75.2 °F - 60.8 °F 61% 29.91 in 10.0 mi SW 11.5 mph 20.7 mph N/A   Mostly Cloudy
11:54 AM 78.1 °F - 60.1 °F 54% 29.89 in 10.0 mi SW 10.4 mph 20.7 mph N/A   Mostly Cloudy
12:54 PM 79.0 °F - 57.9 °F 48% 29.86 in 10.0 mi SW 11.5 mph 20.7 mph N/A   Clear
1:54 PM 81.0 °F 80.8 °F 55.9 °F 42% 29.83 in 10.0 mi SW 12.7 mph 24.2 mph N/A   Partly Cloudy
2:54 PM 82.0 °F 81.6 °F 55.9 °F 41% 29.80 in 10.0 mi WSW 11.5 mph 26.5 mph N/A   Partly Cloudy
3:54 PM 82.0 °F 81.7 °F 57.0 °F 42% 29.79 in 10.0 mi WSW 10.4 mph 20.7 mph N/A   Mostly Cloudy
4:54 PM 81.0 °F 81.1 °F 57.9 °F 45% 29.78 in 10.0 mi WSW 10.4 mph 19.6 mph N/A   Overcast
5:54 PM 80.1 °F 80.6 °F 57.9 °F 47% 29.79 in 10.0 mi WSW 10.4 mph 17.3 mph N/A   Mostly Cloudy
6:54 PM 79.0 °F - 57.9 °F 48% 29.80 in 10.0 mi WSW 9.2 mph - N/A   Partly Cloudy
7:54 PM 75.9 °F - 59.0 °F 56% 29.80 in 10.0 mi Variable 4.6 mph - N/A   Mostly Cloudy
8:54 PM 75.0 °F - 59.0 °F 57% 29.82 in 10.0 mi Calm Calm - N/A   Mostly Cloudy
9:54 PM 73.0 °F - 59.0 °F 61% 29.84 in 10.0 mi SW 4.6 mph - N/A   Scattered Clouds
10:54 PM 71.1 °F - 59.0 °F 66% 29.84 in 10.0 mi WSW 3.5 mph - N/A   Partly Cloudy
11:54 PM 70.0 °F - 60.1 °F 71% 29.84 in 10.0 mi Variable 3.5 mph - N/A   Clear